Погода в Шамлуге

Армения     41°09′49″N   44°43′05″E
темп.,
°C
ветер,
м/с
пор.,
м/с
влажн.,
%
обл.,
%
осадки,
мм/ч
давл.,
гПа
погр.,
м
13 апреля, вт
вт1301:00+8ссз2293100 2.1 1020256
04:00+8ссз1196100 3.3 1019165
07:00+8с1195100 0.6 1020173
10:00+8ссв2295100 0.8 1020308
13:00+9ссв2295100 0.5 1019346
16:00+9ссв229599 1.9 1017284
19:00+9сз129382 0.9 1018136
22:00+6зюз119099 1.0 101915
14 апреля, ср
ср1401:00+8юз1190100 0.3 101839
04:00+7юз1194100 2.6 101741
07:00+7ссв0096100 1.6 101820
10:00+10с1279100 1.6 1017594
13:00+13св236192 0.6 10151134
16:00+16св34503 0.9 10131203
19:00+12в22755 0.9 101554
22:00+9ююз22825 0.9 101729
15 апреля, чт
чт1501:00+8юз22789 0.0 101720
04:00+7юз22723 0.0 101821
07:00+6юз226623 0.0 101824
10:00+13св21500 0.0 1017600
13:00+17св324450 0.0 10161069
16:00+18св323982 0.1 10141369
19:00+14вюв0158100 0.0 101514
22:00
16 апреля, пт
пт1601:00+10ююз226694 0.0 101621
04:00+9ююз116929 0.0 101710
07:00+8юз217429 0.0 101817
10:00+14св21537 0.0 1017784
13:00+17св324766 0.1 10151304
16:00+17ссв225376 0.9 10141065
19:00+13вюв118079 1.5 101783
22:00+11юз2285100 1.6 101727
17 апреля, сб
сб1701:00+9ююз118815 0.0 101910
04:00+8юз219031 0.0 101911
07:00+8юз228793 0.0 101930
10:00+14ссв216899 0.0 1018590
13:00+18ссв325378 0.0 10161105
16:00+19св324992 0.2 10151440
19:00+15св116595 0.0 101521
22:00+14ююз1169100 0.1 101616